Regional Weather Roundup
Issued by NWS

Home | Current Version | Previous Version | Graphics & Text | Print | Product List | Glossary On
Versions: 1 2 3 4 5 6 7 8 9 10 11 12 13 14 15 16 17 18 19 20 21 22 23 24 25 26 27 28 29 30 31 32 33 34 35 36 37 38 39 40 41 42 43 44 45 46 47 48 49 50
000
ASUS45 KBOU 271007
RWRCO

WEATHER ROUNDUP FOR COLORADO
NATIONAL WEATHER SERVICE DENVER/BOULDER CO
300 AM MST THU NOV 27 2014

NOTE: "FAIR" INDICATES FEW OR NO CLOUDS BELOW 12000 FEET WITH NO
SIGNIFICANT WEATHER AND/OR OBSTRUCTIONS TO VISIBILITY.

COZ001>005-013-030-031-271100-
...NORTHWEST COLORADO...

CITY           SKY/WX    TMP DP  RH WIND       PRES   REMARKS
CRAIG          CLEAR     24  20  84 SE3       30.43S
HAYDEN         PTCLDY    27  21  80 SE7       30.43S WCI  19
MEEKER         PTCLDY    23  19  85 VRB6      30.46S WCI  16
MOUNT WERNER   NOT AVBL
STEAMBOAT SPGS PTCLDY    26  25  96 CALM      30.43S
WALDEN         PTCLDY    34  19  55 SW10      30.37S WCI  26
$$

COZ006>008-011-271100-
...WEST CENTRAL VALLEYS...

CITY           SKY/WX    TMP DP  RH WIND       PRES   REMARKS
GRAND JUNCTION PTCLDY    29  24  82 E7        30.46S WCI  22
MONTROSE       PTCLDY    24  20  84 S7        30.51R WCI  16
EAGLE          PTCLDY    25  25 100 CALM      30.51S
RIFLE          PTCLDY    25  21  85 CALM      30.50R
DELTA          PTCLDY    29  24  80 CALM      30.50S
NUCLA          PTCLDY    32  25  74 E5        30.53S WCI  27
$$

COZ017>023-064>068-271100-
...SOUTHWEST COLORADO...

CITY           SKY/WX    TMP DP  RH WIND       PRES   REMARKS
DURANGO        PTCLDY    20  16  84 E5        30.47S WCI  13
CORTEZ         CLEAR     24  20  84 NE9       30.48R WCI  14
PAGOSA SPRINGS PTCLDY    24  20  84 CALM      30.49S
TELLURIDE      CLEAR     25  20  80 SE7       30.56S WCI  17
WOLF CREEK PAS CLEAR     30  -8  19 MISG      30.59S
$$

COZ009-010-012-014-032>034-037-058>063-271100-
...CENTRAL COLORADO...

CITY           SKY/WX    TMP DP  RH WIND       PRES   REMARKS
ASPEN          CLEAR     20  15  81 SW7       30.48S WCI  11
BUENA VISTA    CLEAR     24  18  78 CALM      30.44R
COPPER MTN     PTCLDY    27  14  59 W29G35    30.51S WCI  11
BERTHOUD PASS  NOT AVBL
COTTONWOOD PAS CLEAR     34  18  51 SE3       30.46S
GUNNISON       CLEAR     18  12  79 CALM      30.56R
KREMMLING      PTCLDY    23  19  86 E3        30.45F
LEADVILLE      CLEAR     20  12  71 NE15      30.48S WCI   6
MONARCH PASS   MOCLDY    19  18  93 MISG      30.59S
SALIDA         CLEAR     43  21  42 SW9G18    30.49F
SUNLIGHT       PTCLDY    27  25  93 CALM      30.54R
WILKERSON PASS PTCLDY    28   5  37 W7        30.48S WCI  21
$$

COZ069>075-271100-
...SAN LUIS VALLEY/SANGRE DE CRISTO MOUNTAINS...

CITY           SKY/WX    TMP DP  RH WIND       PRES   REMARKS
ALAMOSA        PTCLDY    16  12  84 NW6       30.49S WCI   7
LA VETA PASS   CLEAR     30  18  59 S16G26    30.46S WCI  19
SAGUACHE       CLEAR     28  21  74 NW12      30.50S WCI  18
$$

COZ035-036-038>040-271100-
...NORTHERN COLORADO FRONT RANGE...

CITY           SKY/WX    TMP DP  RH WIND       PRES   REMARKS
DENVER INTL AP CLOUDY    33  25  72 S14       30.24F WCI  23
DMNS CITY PARK   N/A     33  24  71 SW5G10    30.25R WCI  28
AURORA         PTCLDY    37  24  58 S12       30.26S
FRONT RANGE AP CLOUDY    34  28  80 S15       30.24F WCI  24
ERIE MUNI ARPT CLOUDY    23  22  95 CALM      30.24S
BOULDER MUN AP CLOUDY    28  27  93 W6        30.23S WCI  22
CENTENNIAL     CLOUDY    37  23  56 SW8       30.26S
BROOMFIELD     CLOUDY    45  21  39 CALM      30.24S
FORT COLLINS   MOCLDY    19  18  93 SE6       30.24F WCI  11
LONGMONT       MOCLDY    23  21  90 CALM      30.27S
$$

COZ041-046-047-076>085-087-088-271100-
...PIKES PEAK/PALMER DIVIDE AND SOUTHERN FOOTHILLS...

CITY           SKY/WX    TMP DP  RH WIND       PRES   REMARKS
COLO. SPRINGS  MOCLDY    29  22  75 N9        30.30F WCI  20
A. F. ACADEMY  MOCLDY    26  20  79 N7        30.30S WCI  18
ELLICOTT       NOT AVBL
FALCON         NOT AVBL
FORT CARSON    PTCLDY    24  21  89 NW7       30.28F WCI  16
LIMON          MOCLDY    20  17  88 NW3       30.29F
MONUMENT HILL  MOCLDY    36  19  51 SW10      30.29S
TRINIDAD       CLEAR     34  23  64 SW13      30.31S WCI  25
$$

COZ042>045-048>051-090-091-271100-
...NORTHEAST COLORADO...

CITY           SKY/WX    TMP DP  RH WIND       PRES   REMARKS
GREELEY ARPT   PTCLDY    21  14  73 CALM      30.26F
AKRON          PTCLDY    28  24  85 W16       30.24F WCI  16
BURLINGTON     CLEAR     25  19  78 SW14      30.30S WCI  13
WRAY           PTCLDY    24  21  89 CALM      30.28F
STERLING       PTCLDY    21  19  93 SW6       30.25F WCI  14
HOLYOKE        PTCLDY    21  19  93 SW3       30.27F
FORT MORGAN    PTCLDY    22  21  94 W12       30.25F WCI  11
$$

COZ086-089-092>099-271100-
...SOUTHEAST COLORADO...

CITY           SKY/WX    TMP DP  RH WIND       PRES   REMARKS
PUEBLO         PTCLDY    23  19  85 CALM      30.31F
LA JUNTA       PTCLDY    23  19  85 W5        30.33S WCI  17
LAMAR          CLEAR     19  16  88 SW3       30.32F
SPRINGFIELD      N/A     28  22  78 S14       30.33S WCI  17
$$



USA.gov is the U.S. government's official web portal to all federal, state and local government web resources and services.